User: anonymous   Login
Location: ??????????
(54.4061°N, 22.6114°E)
Time: 00:18:09
(UTC+00:00)
Language:

Cosmos 2297 - Orbit

View from above orbital plane
View from above orbital plane
View from above satellite
View from above satellite

Ground track
Ground track

The orbit data is extracted from the following two-line orbital elements,

1 23404U 94077A   19346.78779048 -.00000240  00000-0 -10192-3 0  9997
2 23404  71.0130 190.9425 0017144 217.4961 142.4966 14.13526161292469
Epoch (UTC): 12 December 2019 18:54:25
Eccentricity: 0.0017144
inclination: 71.0130°
perigee height: 835 km
apogee height: 860 km
right ascension of ascending node: 190.9425°
argument of perigee: 217.4961°
revolutions per day: 14.13526161
mean anomaly at epoch: 142.4966°
orbit number at epoch: 29246

The dashed part of the orbit path shows where the satellite is in the earth's shadow,  

DLR